sat.trackr.live / text

‹ back to catalog

STARLINK-36541

NORAD 67509 · 2026-012S

PAYLOAD ACTIVE UNKNOWN

§ Identity

Operator
Country
US
Launch date
2026-01-18
Launch site
AFETR
Launch vehicle
Mass (kg)
RCS (m²)

Purposes: comms

External: N2YO · Heavens-Above · Gunter

§ Orbital elements

Epoch: 2026-05-24T23:15:00.973728Z

Period
94.27 min
Inclination
43.0024°
Eccentricity
0.0001131
Mean motion
15.27590387 rev/d
Perigee alt
482.2 km
Apogee alt
483.8 km
Semi-major
6,861.2 km
B*
4.3537e-4
RAAN
243.9890°
Arg perigee
287.7856°
Mean anomaly
72.2872°
Rev number
1,942

§ Raw data

STARLINK-365411 67509U 26012S   26144.96876127  .00011741  00000+0  43537-3 0  99992 67509  43.0024 243.9890 0001131 287.7856  72.2872 15.27590387 19427

JSON: /api/v1/satellites/67509 · /tle

For live sub-satellite position, see the globe view (requires WebGL).

§ Visibility from observer

Set your observer location to see the next 7 days of passes ≥ 10°. The values pass through the URL so the page stays shareable.

No JS? Fill the form by hand. The geolocation button needs JavaScript.